GFSSGP_sfc_dewp_132.txt.gz
Dewpoint
59 51 40 36 31 31 30 34 37 39 42 48 50 46 44 50 47 45 61 64 67 67 69 69 70 70 70 70 70 70 70 68 67 66 65 65 64 65 64 63 63 63 65 65 64 64 65 64 62
55 48 38 34 30 29 29 35 37 39 50 53 53 52 52 50 58 60 62 65 68 68 69 69 70 70 69 69 69 70 69 69 66 65 64 64 64 64 63 63 63 63 64 63 63 63 64 63 62
49 39 34 33 30 28 32 35 38 46 52 48 52 54 53 54 60 60 63 67 66 66 67 68 70 70 69 69 70 69 69 69 67 65 64 63 63 62 62 63 63 63 62 63 64 63 64 63 63
46 40 35 30 30 30 32 36 43 46 45 51 52 51 54 59 61 62 66 66 65 65 66 68 70 70 69 70 69 69 69 69 68 66 65 64 63 63 62 63 62 63 62 63 63 63 63 63 63
45 37 31 31 30 31 33 41 43 42 43 49 50 50 51 57 62 65 65 65 64 64 65 67 69 69 69 69 69 69 69 69 68 67 65 64 63 62 62 62 62 62 62 63 63 64 63 63 63
44 37 30 29 31 33 37 42 42 42 45 51 51 52 52 60 62 64 65 64 64 64 65 66 66 67 68 68 68 69 69 68 68 67 65 64 63 62 62 62 62 62 62 63 63 63 63 63 62
45 42 33 32 32 34 34 42 39 40 46 47 53 50 51 61 62 64 64 63 64 64 64 65 65 65 65 66 66 66 67 67 67 67 66 65 65 62 61 61 62 62 62 62 62 62 62 63 62
43 47 41 36 33 34 34 41 39 41 42 54 53 48 51 59 62 63 63 63 63 63 63 63 63 64 63 63 63 63 64 65 65 65 64 63 63 62 60 63 63 62 61 62 62 62 62 62 61
42 45 41 38 35 34 29 35 40 46 50 51 54 51 53 60 62 61 62 63 63 63 62 63 62 62 62 61 60 61 62 62 62 62 61 60 60 60 60 62 63 63 62 61 61 60 60 60 62
45 41 41 39 35 29 28 33 39 45 48 49 51 54 57 61 61 60 59 59 61 61 63 62 61 61 60 60 60 60 60 59 59 59 59 59 58 58 59 59 61 61 61 62 60 59 59 57 56
49 43 41 42 33 30 30 31 30 42 43 44 49 53 58 60 59 59 59 59 59 60 63 62 60 60 60 59 59 59 59 58 58 58 58 58 58 57 57 57 57 56 56 55 56 55 55 55 55
47 49 47 41 40 34 30 29 29 41 41 40 46 55 58 58 59 59 59 59 59 60 61 61 60 60 59 59 59 58 58 57 57 57 57 57 56 55 54 55 54 54 54 54 54 55 55 55 55
48 48 50 50 49 47 37 31 27 28 33 49 53 56 57 58 58 60 60 60 59 59 60 62 60 59 59 59 58 57 57 57 57 57 57 57 56 55 54 54 53 53 54 54 54 54 55 55 55
47 49 48 49 50 45 42 39 39 30 50 52 55 55 56 57 58 58 59 60 59 58 60 61 61 60 59 58 58 57 57 57 57 57 57 57 57 55 54 53 53 53 54 54 54 54 54 55 55
47 44 45 46 48 49 39 42 35 43 46 49 53 54 55 56 57 58 59 60 60 59 59 60 61 60 59 59 58 58 57 57 56 57 58 57 57 56 54 54 54 54 55 54 54 54 54 55 55
44 42 39 43 47 49 43 43 44 42 44 43 51 53 54 55 57 58 58 59 60 60 59 59 61 61 60 59 58 58 58 57 57 58 58 58 57 57 55 55 55 55 55 55 54 54 54 54 53
41 34 38 40 46 44 44 43 45 43 42 41 45 51 53 55 55 57 58 59 59 61 60 59 59 60 60 59 59 58 58 58 58 58 58 58 58 57 56 55 55 55 55 55 55 54 53 53 53
34 36 37 38 40 41 38 45 46 40 41 41 42 49 52 53 55 57 58 58 59 60 61 60 58 59 59 59 58 57 56 57 57 58 59 58 58 57 56 56 55 56 55 55 54 54 53 53 53
37 35 36 39 41 38 40 40 42 43 34 34 40 44 50 52 54 56 57 57 57 58 59 60 59 57 58 57 57 57 57 57 55 57 57 58 58 57 57 56 55 56 55 55 55 54 53 52 53
37 36 35 38 39 38 38 38 39 39 36 35 34 33 40 49 52 54 56 57 57 57 58 59 60 59 57 57 58 57 57 56 57 56 56 57 57 57 57 56 56 56 56 55 54 53 52 52 53
41 37 36 36 35 37 36 35 35 37 39 39 37 37 35 37 48 51 54 56 58 58 57 58 58 61 59 58 57 56 56 55 55 54 55 56 57 57 57 57 57 56 56 56 55 54 53 53 53
37 39 38 37 35 33 36 32 35 37 36 37 39 37 36 33 40 46 53 55 57 58 58 57 58 59 61 59 57 57 56 56 56 56 56 56 57 57 57 57 57 57 57 57 56 56 56 54 54
39 40 39 39 37 34 32 33 33 35 37 38 37 37 38 36 34 41 50 54 56 57 57 57 57 58 60 60 59 58 57 57 58 58 57 56 56 57 58 58 57 57 57 57 57 55 55 55 56
42 41 39 38 37 31 29 32 30 32 35 37 38 39 37 38 36 33 41 52 55 57 57 56 56 56 59 60 60 59 58 58 58 57 57 58 57 57 57 58 58 58 57 57 57 57 56 56 56
40 37 32 31 32 26 28 32 29 35 36 36 37 37 39 40 37 33 32 45 52 55 57 56 55 55 57 59 60 60 59 59 58 58 57 57 57 57 57 57 57 58 58 57 57 56 56 56 56
39 36 30 24 24 22 31 30 32 37 37 37 35 35 34 37 40 39 32 38 47 53 56 57 55 55 56 57 58 59 59 59 58 58 57 57 56 57 56 57 57 57 57 57 57 57 57 57 57
38 35 33 27 16 23 29 31 31 34 34 34 33 36 36 35 33 40 39 35 42 51 55 56 56 55 55 56 57 57 58 58 58 58 57 57 56 56 55 55 56 57 57 57 57 58 57 57 57
38 38 33 32 20 20 25 26 28 31 33 34 34 32 33 36 31 30 37 37 39 48 53 56 56 55 54 56 57 57 58 58 58 57 57 56 56 55 55 55 56 56 57 57 57 58 58 58 57
37 35 35 31 27 23 20 20 29 31 31 34 34 34 34 36 32 28 27 33 37 43 51 55 56 55 54 54 55 56 57 57 57 57 56 56 55 54 55 55 56 56 57 57 58 58 58 57 57
36 34 34 29 27 27 25 23 29 30 32 28 33 31 30 31 28 25 25 26 32 36 47 51 53 55 54 53 53 54 55 54 54 55 56 53 54 54 55 56 57 57 57 58 58 58 58 57 56

GFSSGP_sfc_dewp_138.txt.gz
Dewpoint
57 46 42 41 36 35 34 36 38 40 40 44 44 44 43 47 44 45 63 63 63 64 65 68 70 71 71 71 70 70 69 67 66 65 65 65 64 64 65 66 66 66 66 64 63 62 62 62 63
51 39 41 39 35 32 31 36 38 40 47 49 50 50 48 46 57 60 62 64 63 64 65 67 70 70 71 70 70 69 68 67 65 65 66 64 64 64 64 65 65 65 65 64 62 63 63 62 62
49 38 35 36 34 31 32 35 38 47 50 49 50 53 51 51 58 60 63 64 64 65 65 68 70 70 70 70 70 69 69 67 65 65 65 63 63 63 64 65 64 65 64 63 63 63 62 62 63
47 43 36 32 32 32 32 35 41 48 47 51 51 48 55 59 58 61 64 65 64 65 65 69 70 70 69 69 69 69 68 67 66 64 63 63 63 63 64 63 64 65 64 62 63 63 63 63 63
47 42 39 31 32 32 32 38 45 45 44 48 50 44 52 60 62 63 64 64 64 65 65 67 69 70 69 69 69 69 69 68 67 65 63 62 62 63 62 64 64 65 63 62 62 63 63 63 63
46 42 38 35 29 33 35 42 46 44 45 49 48 48 52 61 63 64 64 64 63 63 65 66 67 68 69 69 69 69 69 68 67 65 63 63 63 62 63 63 63 64 64 61 63 63 63 63 62
45 43 40 38 34 34 34 43 43 43 44 47 50 46 53 60 63 64 64 63 62 62 64 65 66 66 66 67 67 68 68 67 67 66 65 64 62 63 63 63 63 63 63 63 63 63 62 61 60
48 45 42 41 38 36 33 41 39 41 43 52 52 43 45 57 63 64 63 63 61 62 62 63 64 64 64 65 65 65 66 66 66 66 64 63 62 61 61 62 63 63 63 63 63 63 62 61 60
51 45 42 42 41 38 30 35 40 46 46 52 53 49 53 60 63 63 62 62 61 61 61 62 63 64 64 63 62 63 64 64 64 63 61 60 59 59 59 62 63 64 63 62 61 62 63 61 60
46 44 42 43 43 41 33 31 37 42 45 47 51 55 57 61 62 61 61 60 60 60 59 60 62 62 62 61 62 62 61 62 61 61 61 59 59 60 60 60 61 62 62 62 60 60 61 58 56
46 40 42 44 44 44 43 41 36 40 40 42 44 50 56 60 61 59 60 60 60 59 59 60 61 62 61 60 61 61 60 61 61 62 62 61 60 61 59 59 58 59 57 56 57 57 57 57 57
46 45 44 42 42 40 43 44 35 35 37 42 45 49 56 59 60 60 59 59 60 59 59 60 60 61 61 60 60 60 60 60 60 60 61 60 59 59 58 57 57 58 57 57 57 57 58 58 57
48 45 47 47 39 36 39 36 38 34 36 40 41 47 54 57 59 59 59 59 61 59 59 60 61 60 60 60 59 59 59 59 59 60 60 59 57 57 56 56 56 56 56 56 56 57 57 57 57
41 42 43 49 48 47 44 42 41 41 40 37 42 46 51 55 57 58 59 59 60 60 59 60 61 60 60 59 59 59 58 58 58 58 59 59 57 56 54 55 55 54 55 56 56 55 56 57 57
46 41 43 43 46 48 49 46 45 43 40 39 44 45 50 54 56 57 58 59 61 60 59 60 60 61 60 59 59 59 59 58 57 58 59 59 58 56 54 53 54 54 55 56 56 56 56 56 56
46 42 36 36 45 44 44 27 29 44 44 43 43 43 48 52 55 56 57 58 59 60 59 60 61 62 61 59 59 58 58 58 58 57 57 58 58 58 56 54 53 53 54 55 55 55 56 56 56
45 39 38 38 45 44 44 31 36 38 42 45 46 45 45 48 52 55 57 58 59 59 59 59 61 61 61 60 59 59 59 58 58 57 57 57 58 59 58 56 53 56 55 55 55 55 56 56 56
36 38 38 36 39 45 40 39 38 42 44 44 43 43 45 47 48 52 56 58 59 60 60 59 60 61 61 60 60 59 59 59 58 58 58 57 58 59 59 58 57 57 57 56 57 56 57 56 56
39 37 36 37 39 41 37 38 37 37 38 41 42 45 45 45 47 49 54 57 59 60 60 59 59 60 60 60 59 59 58 59 58 58 58 58 57 58 59 59 58 57 57 57 56 57 57 57 57
38 37 36 37 38 40 37 37 37 37 37 39 40 41 44 45 45 47 52 56 58 59 60 60 59 59 60 60 60 59 58 58 58 58 58 58 57 58 59 59 59 58 57 57 57 57 56 57 57
40 37 37 35 36 38 37 34 34 34 35 36 38 38 41 44 45 45 48 53 56 58 59 59 60 59 60 60 60 59 59 59 58 58 58 59 59 59 59 60 60 59 59 57 58 58 57 57 57
39 41 39 38 37 34 35 29 32 31 32 35 38 38 37 39 42 45 46 50 53 56 58 59 60 60 59 60 60 60 58 58 58 58 59 59 59 59 59 60 60 60 59 59 59 59 58 58 56
40 41 41 39 38 36 35 33 32 32 32 31 31 35 37 38 38 40 42 47 51 56 58 60 59 60 60 60 60 60 59 59 58 58 59 59 59 58 58 58 59 59 60 60 59 59 59 58 57
43 42 41 40 39 33 34 33 30 30 31 32 33 32 35 37 39 40 41 43 48 54 58 59 58 59 61 60 60 60 59 59 59 59 59 59 59 59 59 58 59 59 59 59 59 60 59 59 58
41 38 32 31 30 30 28 32 32 31 31 31 30 30 32 35 39 40 41 42 44 52 56 58 58 58 60 61 60 60 59 60 59 59 59 59 59 58 58 58 59 59 58 59 59 59 59 59 59
38 34 28 24 27 26 31 28 28 32 33 33 32 32 35 37 40 42 42 42 42 49 54 56 57 57 58 60 60 60 60 60 60 59 59 59 59 58 58 58 58 58 58 58 59 59 59 59 58
33 36 34 29 26 27 25 27 31 34 34 34 33 31 33 36 39 39 41 42 42 45 51 54 55 57 57 58 59 60 60 60 59 60 60 59 59 59 59 59 59 59 59 59 58 58 57 58 58
38 38 34 34 27 26 23 25 22 30 30 32 33 33 34 37 39 40 40 41 41 41 45 52 54 55 56 58 58 59 60 60 60 60 60 60 59 59 59 59 59 58 58 58 58 57 57 57 57
38 36 38 36 34 27 23 21 23 25 27 30 33 34 34 36 37 38 39 41 42 41 41 48 53 55 56 57 58 58 59 60 60 60 60 60 60 59 59 58 58 58 58 58 58 57 57 56 57
36 35 36 32 31 33 27 26 27 29 30 29 32 34 33 34 34 34 37 39 38 41 41 45 52 54 55 56 57 57 58 59 60 60 60 60 59 60 58 58 58 57 57 57 57 57 57 56 56

GFSSGP_sfc_dewp_141.txt.gz
Dewpoint
56 43 39 40 36 36 32 36 37 38 39 42 42 42 41 43 45 49 61 61 62 62 65 67 71 70 70 70 70 70 69 68 67 66 66 64 65 65 66 65 68 66 63 62 63 62 63 63 62
50 44 38 37 33 30 30 35 36 39 44 44 45 46 44 46 54 59 60 62 62 62 64 65 70 71 70 70 70 69 68 66 64 63 65 64 63 65 66 65 66 65 63 62 63 64 62 63 62
49 44 40 35 34 30 31 35 36 44 47 46 45 49 48 49 57 58 61 62 62 62 64 68 70 70 70 70 70 69 68 67 65 65 64 63 63 64 65 65 66 64 62 62 62 63 62 62 62
47 45 42 34 32 34 32 33 38 45 46 47 47 43 52 57 57 59 62 62 62 63 65 68 70 70 70 69 69 69 68 67 65 65 64 64 64 64 65 65 65 65 63 62 62 62 62 62 63
48 44 40 40 33 33 33 34 39 43 42 45 47 40 45 58 60 61 62 62 62 63 63 67 69 70 70 69 68 68 67 67 66 64 64 64 63 63 63 64 65 65 62 62 63 63 63 63 63
46 44 39 38 38 32 34 40 41 43 41 45 44 42 47 59 61 62 62 62 63 63 63 65 67 68 69 69 69 68 68 67 66 65 64 63 63 63 63 63 65 64 62 61 62 63 63 62 61
46 43 40 38 37 36 33 43 43 44 41 43 47 41 50 58 61 63 63 62 62 61 61 64 65 66 67 67 67 68 68 67 66 66 65 64 63 64 64 65 64 64 61 63 63 62 61 61 60
47 43 40 38 38 38 35 42 42 41 41 50 50 41 43 55 62 63 63 61 60 60 60 61 63 65 65 66 65 66 66 66 66 65 64 62 61 62 62 63 64 63 64 63 63 62 61 60 60
48 42 38 38 39 38 35 34 39 43 43 49 51 50 53 59 63 63 61 60 59 60 60 60 61 62 63 63 63 63 64 64 64 63 61 59 58 59 59 62 63 64 63 62 62 62 61 60 59
42 38 38 39 40 40 39 34 36 41 42 44 48 53 56 61 62 61 60 59 59 59 59 59 59 60 61 59 63 63 64 63 62 61 60 57 58 59 60 60 62 63 62 62 61 62 61 59 56
43 37 37 38 40 42 42 36 36 39 37 39 39 46 55 60 60 60 60 59 59 59 59 58 58 59 59 59 60 61 62 62 62 60 60 59 58 60 59 59 60 60 59 58 58 58 57 56 56
45 42 38 38 41 42 42 43 42 41 40 41 42 45 52 57 59 59 59 59 60 60 59 57 57 59 59 58 59 58 59 60 60 59 60 60 59 60 58 57 57 59 57 57 57 57 57 57 56
46 43 40 42 43 41 40 39 41 41 42 40 40 42 49 54 57 58 59 60 59 59 59 58 58 58 59 58 58 58 58 59 59 59 59 58 58 59 58 57 57 57 56 56 56 56 57 57 56
40 40 40 43 44 45 43 41 41 41 41 39 36 39 42 49 54 57 58 58 59 59 59 59 58 59 58 58 58 57 58 58 58 58 58 58 57 57 56 56 56 55 55 55 56 55 56 56 57
44 41 39 36 40 39 45 43 43 43 43 42 41 41 41 45 50 55 57 58 58 59 59 59 59 59 59 58 58 58 58 57 58 58 58 58 57 55 53 54 55 54 55 55 56 55 55 55 56
43 42 38 38 38 36 40 31 27 37 43 43 42 41 42 44 48 52 55 57 58 59 59 59 59 60 59 59 59 58 57 57 58 57 57 58 57 55 54 53 53 55 54 55 55 55 55 55 55
43 39 38 38 39 38 39 35 28 28 27 34 40 41 42 42 47 50 52 55 57 58 58 59 60 60 60 59 59 59 58 58 57 57 57 57 56 55 55 54 54 54 54 54 54 55 55 55 55
38 38 37 37 38 40 38 39 38 32 37 35 32 33 38 42 44 47 51 53 55 57 57 58 59 60 61 60 60 59 59 58 58 57 57 56 55 56 57 57 55 54 55 55 55 55 56 56 56
38 38 35 34 38 41 39 38 36 36 36 33 34 33 37 42 44 46 49 53 55 56 57 58 59 60 60 61 60 59 58 59 58 57 57 57 55 56 58 58 57 56 56 57 56 56 56 57 57
41 39 39 38 38 40 38 37 36 36 37 36 34 32 32 30 39 45 46 51 55 56 58 58 58 60 60 60 60 59 58 58 58 58 58 57 58 57 58 59 58 58 57 57 57 57 56 57 57
39 40 38 38 37 38 37 35 35 36 36 36 36 36 34 32 31 35 45 48 54 56 58 58 58 59 60 60 60 59 59 59 58 58 58 58 58 58 58 59 59 59 58 57 57 58 57 56 58
35 38 40 39 38 36 35 32 32 32 31 33 35 35 34 33 33 34 42 47 51 56 58 59 59 59 59 60 60 60 58 58 58 58 58 59 59 58 58 58 59 59 59 59 59 58 58 58 56
35 38 41 41 38 38 37 34 32 32 31 31 32 35 35 36 36 34 38 47 49 54 58 59 59 59 59 60 60 60 60 59 59 59 60 60 60 60 58 58 59 59 60 60 60 60 59 58 58
39 41 41 40 38 32 35 32 28 29 31 31 32 33 34 33 36 36 36 41 47 52 57 58 58 59 59 59 60 60 60 60 59 59 59 60 60 59 59 58 59 59 59 60 60 60 60 59 58
41 38 32 31 29 30 30 32 31 30 30 30 30 32 33 34 34 36 38 40 42 46 54 57 58 58 59 60 60 60 60 60 60 60 60 59 59 59 59 58 58 58 59 59 60 60 60 59 59
37 36 34 26 28 25 30 29 30 32 33 35 34 34 34 33 35 39 41 42 43 45 48 56 57 57 58 59 60 60 60 60 60 59 59 59 59 59 59 59 59 59 59 59 59 59 60 59 59
32 34 35 32 32 30 30 30 30 32 30 31 32 32 34 34 35 36 39 43 44 46 46 51 55 57 57 58 60 60 59 60 59 59 60 60 60 59 60 59 59 59 59 59 59 59 58 58 58
29 29 34 34 29 26 23 22 19 25 28 29 31 33 34 34 36 39 41 42 43 44 45 48 52 55 56 57 58 59 59 59 59 59 59 60 60 60 59 59 59 59 59 59 59 59 58 58 57
30 29 28 32 30 25 22 20 21 22 22 23 27 31 34 35 36 37 39 40 43 44 44 45 49 52 54 56 57 58 59 59 59 59 59 59 60 60 59 59 59 59 59 59 59 58 58 56 56
28 30 32 33 31 32 27 25 27 27 29 29 31 35 35 37 33 31 34 36 41 42 44 43 46 51 53 55 56 57 58 58 59 59 59 59 59 60 59 59 59 59 59 59 58 57 56 56 55

GFSSGP_sfc_dewp_144.txt.gz
Dewpoint
59 51 47 44 40 40 35 39 37 39 39 42 43 43 43 50 50 53 60 61 62 64 67 69 71 71 71 71 71 70 70 69 68 67 66 66 66 64 68 66 67 64 63 63 63 64 63 63 61
56 52 47 42 37 33 34 36 39 43 44 43 45 45 44 50 57 59 60 62 62 64 65 68 70 71 71 70 70 69 68 67 65 66 65 64 66 65 66 67 66 64 62 63 64 64 62 61 62
53 48 46 39 37 32 34 36 39 45 45 45 45 48 48 54 57 59 61 62 62 63 65 68 70 71 71 70 69 69 68 66 65 64 65 62 64 65 64 66 65 62 63 62 63 63 61 61 63
49 49 45 38 34 36 33 33 39 45 46 46 46 47 54 57 57 60 61 61 61 65 67 69 70 71 70 70 69 68 68 67 66 65 64 63 65 65 65 66 66 63 62 62 61 61 61 63 63
50 48 43 41 36 34 34 34 38 43 44 45 46 43 53 58 59 61 61 61 62 65 67 68 70 70 70 70 69 68 68 67 66 64 64 62 64 64 65 66 65 63 63 62 61 61 63 63 62
48 47 41 39 40 39 34 40 41 41 42 46 44 41 55 60 60 61 61 61 63 63 66 67 67 68 69 69 69 68 67 67 66 63 62 62 63 64 64 65 64 63 62 62 61 63 62 61 61
47 45 41 40 39 38 36 42 42 42 42 43 47 42 55 58 61 62 62 62 63 63 65 66 66 67 66 67 67 67 67 67 66 65 63 63 64 65 64 64 65 62 61 62 62 62 61 61 60
47 46 41 40 37 38 37 42 42 43 44 50 50 44 48 57 62 63 62 62 61 60 63 63 65 66 66 66 65 66 66 66 66 65 63 61 63 63 63 63 64 64 63 63 62 62 61 60 60
47 42 40 40 38 39 35 35 41 44 43 48 50 51 54 61 63 62 62 61 60 60 60 61 64 64 65 65 64 64 64 64 63 62 60 59 59 60 60 62 63 65 65 64 63 62 61 60 60
44 39 36 37 38 39 38 36 37 41 41 43 50 54 58 61 62 61 60 60 59 59 60 59 62 62 63 63 65 65 64 64 62 61 59 59 58 59 61 60 62 63 63 63 63 63 61 59 56
46 41 38 35 37 41 43 42 37 37 38 40 42 52 58 60 61 60 60 59 59 59 60 59 59 60 62 61 64 64 64 63 62 61 60 59 60 60 60 60 60 60 59 59 60 61 59 57 57
43 43 41 41 40 42 41 42 42 38 39 42 41 50 56 59 59 60 59 59 59 59 59 58 58 59 60 60 61 62 62 62 61 60 60 58 60 60 59 59 59 59 58 58 58 57 57 56 56
40 42 44 43 42 42 43 41 39 40 42 42 42 43 52 56 58 59 59 59 59 59 59 58 57 58 59 59 59 59 59 60 60 60 60 60 59 59 58 58 57 58 57 57 57 57 57 57 56
41 42 41 42 41 43 43 43 42 41 41 42 41 40 41 51 55 57 58 59 59 59 59 59 57 58 59 58 58 58 59 59 60 60 59 59 59 58 58 57 57 57 56 56 57 56 57 57 57
45 42 42 40 39 40 40 39 41 44 43 42 42 42 37 41 50 54 57 58 59 59 59 59 58 58 58 58 58 58 58 59 59 59 59 59 58 57 55 56 56 56 56 55 56 55 55 56 56
43 42 38 40 39 38 38 35 37 35 40 43 43 43 42 43 44 50 56 58 58 58 58 59 59 58 59 58 58 58 58 58 58 58 58 58 58 56 55 54 55 55 55 55 55 55 55 55 55
43 39 38 38 39 39 37 36 39 38 31 26 31 40 41 43 43 47 53 56 58 58 58 59 59 59 59 59 59 58 57 57 57 57 57 58 58 57 55 53 54 54 54 54 55 55 55 54 55
38 40 39 38 38 38 38 37 38 40 40 36 30 29 31 35 41 45 49 53 57 58 58 59 59 59 60 59 59 59 58 58 57 57 56 57 57 56 55 55 54 54 54 54 54 54 55 55 55
42 41 38 37 38 37 37 39 39 40 39 38 36 34 34 34 35 41 48 51 54 57 57 58 58 59 60 60 59 58 58 58 57 57 57 56 56 56 56 57 56 54 54 54 54 55 54 55 56
42 41 39 38 39 39 39 38 39 40 39 38 36 36 35 34 33 36 46 50 52 55 57 57 58 59 60 60 60 59 58 58 58 57 57 56 56 55 56 57 57 56 55 55 56 55 55 56 57
41 38 38 37 38 39 38 37 37 38 38 37 38 37 37 36 33 32 36 46 52 53 55 56 57 58 59 60 60 60 59 58 58 57 57 57 57 56 56 58 58 57 57 56 56 56 56 55 56
36 38 37 37 38 34 39 33 36 35 34 36 36 37 37 37 37 35 32 36 46 53 55 57 57 57 59 60 60 59 58 57 57 57 57 57 57 57 56 57 58 58 58 57 56 56 56 56 55
33 36 36 37 37 37 35 35 31 34 32 32 33 36 37 36 36 35 34 33 42 50 55 56 58 58 58 59 60 59 58 58 58 57 57 57 58 58 57 57 57 58 58 58 58 57 57 57 56
39 39 39 38 37 32 32 34 32 34 33 32 32 33 34 35 35 35 36 36 36 46 52 56 57 58 58 58 59 59 59 58 58 58 58 57 58 58 58 57 57 57 58 58 59 59 58 58 57
37 36 30 29 29 28 26 32 32 33 34 31 32 32 34 35 34 35 36 37 37 41 51 55 57 57 58 58 59 59 59 59 58 58 58 58 58 58 58 57 57 57 58 59 59 59 59 59 58
35 34 29 23 24 25 30 31 32 35 35 35 34 34 35 35 34 35 36 38 39 41 47 53 56 57 57 58 58 59 59 59 59 59 59 58 59 59 59 58 57 57 58 58 59 59 59 59 59
32 34 34 30 27 30 29 33 34 35 32 32 32 33 34 35 36 35 37 41 43 44 45 48 54 56 57 57 58 58 59 59 59 59 59 59 59 59 59 59 58 57 57 57 58 58 58 58 58
32 38 34 34 25 22 27 27 25 28 28 27 30 31 33 35 35 35 36 38 41 44 45 46 47 55 56 57 57 58 59 59 59 59 59 59 59 59 59 59 59 58 58 58 58 58 58 58 58
26 27 30 30 32 27 25 24 25 24 25 28 30 31 32 34 35 36 37 39 41 43 44 45 46 48 53 56 57 57 59 59 59 59 59 59 59 59 59 59 59 58 58 58 58 58 58 58 57
25 25 25 24 20 23 25 23 23 23 24 26 29 31 33 34 31 29 30 34 35 38 42 44 44 47 50 54 56 56 58 59 59 58 58 59 59 59 59 59 59 58 58 58 58 58 58 57 56

GFSSGP_sfc_dewp_147.txt.gz
Dewpoint
61 54 53 40 34 36 35 36 38 38 40 43 44 43 49 52 52 50 60 64 65 67 69 70 71 72 71 71 71 71 70 69 68 67 67 65 66 68 66 64 64 63 63 64 63 63 62 61 62
60 54 46 39 33 31 33 39 43 43 42 45 45 46 48 53 58 59 59 64 65 67 69 69 70 71 71 70 70 69 68 68 66 67 66 65 65 68 66 64 63 63 64 62 63 61 62 62 62
55 50 43 36 35 31 33 37 44 44 45 45 46 47 51 54 58 59 60 64 65 66 68 69 70 71 70 70 69 68 67 66 65 64 64 65 64 65 66 65 63 64 61 64 61 61 62 63 63
49 48 44 36 33 32 32 35 44 45 45 46 46 49 56 58 59 60 61 62 64 66 68 69 70 71 70 70 69 68 67 65 66 65 63 64 65 66 66 66 64 62 63 61 60 62 63 63 63
48 46 41 40 39 34 32 35 38 44 44 46 46 47 55 58 61 61 61 65 66 66 68 69 70 70 70 70 69 68 68 66 63 63 62 64 63 65 66 66 64 61 61 61 60 62 63 62 61
45 45 40 38 40 40 36 38 40 40 44 45 44 46 56 60 60 60 62 63 66 66 68 69 67 68 69 69 69 68 68 66 65 61 63 62 64 65 66 65 64 63 63 60 62 62 61 60 60
46 44 42 42 39 38 39 42 41 42 42 44 46 45 57 59 61 61 62 63 65 66 67 67 68 67 66 67 67 67 67 66 65 64 61 61 63 64 65 65 64 63 62 62 62 61 61 60 59
44 44 42 41 39 38 40 42 42 42 44 49 49 46 53 58 62 62 62 62 62 64 66 66 66 67 66 66 64 65 66 66 65 64 62 60 63 63 63 63 64 64 63 63 62 61 61 59 58
46 41 39 39 40 38 38 38 41 43 45 47 51 52 57 61 62 62 61 62 62 63 64 65 65 65 66 65 64 63 64 64 63 62 60 59 60 61 61 61 63 65 65 63 62 61 61 60 60
43 39 36 38 37 37 36 36 39 39 41 44 50 54 62 62 62 61 61 60 59 59 61 64 64 65 65 65 65 64 64 63 62 60 59 59 58 58 58 60 62 63 63 64 63 63 61 59 55
44 42 42 41 39 41 42 42 41 38 38 41 44 52 60 60 60 61 61 60 59 59 59 63 62 63 64 64 65 65 63 62 61 59 59 59 58 58 60 59 60 59 59 60 61 62 60 56 56
42 44 44 44 43 41 41 41 40 40 37 42 43 52 59 59 60 60 60 60 59 59 59 59 61 61 62 63 64 64 63 62 61 60 59 59 59 58 58 59 59 58 58 57 57 57 57 57 56
40 42 43 44 45 43 43 42 41 40 40 41 42 54 59 59 59 60 60 60 59 59 59 59 59 59 61 62 62 63 63 62 61 60 59 59 59 58 58 58 58 58 58 57 57 57 57 56 56
43 44 43 43 41 41 42 43 43 42 42 42 42 42 54 58 59 59 60 59 59 59 59 58 58 58 59 60 60 60 62 61 60 59 59 59 59 58 58 58 57 58 57 56 57 56 57 56 56
46 42 43 42 41 40 40 39 38 44 45 44 42 42 40 43 56 58 59 59 59 59 59 59 57 58 59 58 58 58 59 60 60 59 59 59 59 58 58 57 57 56 56 56 56 56 56 56 56
42 41 38 40 41 41 38 35 38 39 39 42 43 42 43 42 40 55 57 58 59 59 59 60 58 57 58 58 58 58 58 59 59 59 59 59 59 58 57 56 56 56 55 55 55 55 55 55 55
40 36 37 39 40 40 38 36 38 38 38 37 33 41 43 44 43 44 54 57 59 59 59 59 59 57 58 58 58 58 58 58 58 58 59 58 58 57 56 55 55 55 55 55 55 55 54 54 54
37 40 39 38 39 39 38 38 38 38 39 38 40 36 30 39 42 44 49 55 58 59 59 59 59 58 58 59 58 58 58 58 57 57 57 58 58 57 56 54 54 54 54 54 54 54 54 54 54
40 40 39 39 40 39 38 38 38 40 40 40 40 40 38 35 34 35 44 52 56 58 58 58 59 59 58 58 58 58 57 57 57 57 57 57 57 57 56 55 53 53 53 53 53 53 53 54 55
41 39 38 39 41 41 40 39 39 40 40 41 40 40 39 38 36 35 36 47 54 57 57 58 58 59 59 59 58 58 58 58 57 57 57 56 57 57 56 55 55 53 53 53 53 53 53 54 55
40 39 38 38 39 39 39 36 35 37 40 39 40 40 39 38 37 35 35 38 49 55 57 57 58 58 59 59 59 59 58 58 57 57 57 57 56 57 56 56 55 56 53 53 53 54 53 53 55
36 40 39 38 38 34 38 31 32 35 37 36 37 38 39 38 38 38 35 33 49 51 56 57 58 58 59 60 59 59 58 57 57 57 57 57 57 56 56 56 56 56 56 54 54 55 55 55 54
36 38 38 38 37 37 36 34 33 33 32 33 34 34 37 38 38 38 38 37 34 49 52 56 57 57 58 60 60 59 59 58 58 58 58 57 57 57 55 56 56 57 57 57 55 55 56 56 55
39 37 37 37 36 31 33 33 27 28 30 32 35 35 35 34 38 38 38 38 37 38 51 54 56 56 57 59 60 59 59 59 58 58 57 57 57 57 56 56 56 57 57 57 57 56 56 56 56
38 34 29 28 29 28 29 30 30 30 31 33 34 35 35 34 35 36 36 36 37 37 43 54 55 56 57 58 59 59 59 59 58 58 57 57 57 57 56 56 56 56 57 57 58 57 57 56 56
34 33 27 22 22 24 29 27 28 32 32 33 33 34 35 35 35 36 36 37 37 38 40 51 55 56 57 58 58 59 59 59 59 58 58 57 57 57 57 57 56 56 56 57 58 58 58 57 57
31 31 32 29 27 25 25 32 33 33 35 35 33 34 34 33 35 36 36 37 40 41 42 49 53 56 56 58 58 58 59 59 59 59 58 58 58 58 58 58 57 57 56 56 57 57 57 58 58
31 34 27 32 19 20 24 25 22 25 28 28 26 28 31 33 34 36 37 38 39 41 43 45 49 54 56 57 58 58 58 59 59 59 58 58 58 58 58 58 58 57 57 56 57 57 57 58 58
32 31 31 30 31 26 22 23 28 26 25 26 25 26 31 34 34 30 31 32 37 38 40 43 45 47 52 56 57 57 58 59 59 59 59 59 59 59 59 59 58 58 57 57 57 57 57 57 57
29 29 29 26 21 26 25 23 28 25 23 21 28 30 33 34 33 29 29 31 33 33 35 38 42 45 47 50 56 57 57 58 59 59 59 59 59 59 59 59 59 58 58 57 57 57 57 57 57